| time (UTC) | temp C | wind direction | speed KPH | gust KPH | rain 1hr cm | rain 24hr cm | rain mn cm | humidity % | barometer mb |
| 20260507161532 | 16 | 240 | 4.8 | 12.9 | 0.00 | 0.71 | 0.53 | 53 | 1006.8 |
| 20260507161014 | 16 | 355 | 3.2 | 11.3 | 0.00 | 0.71 | 0.53 | 56 | 1006.9 |
| 20260507160514 | 16 | 286 | 3.2 | 11.3 | 0.00 | 0.71 | 0.53 | 57 | 1007.0 |
| 20260507160033 | 16 | 292 | 3.2 | 11.3 | 0.00 | 0.71 | 0.53 | 59 | 1007.2 |
| 20260507155514 | 16 | 88 | 3.2 | 14.5 | 0.00 | 0.71 | 0.53 | 60 | 1007.2 |
| 20260507155014 | 16 | 171 | 1.6 | 14.5 | 0.00 | 0.71 | 0.53 | 62 | 1007.3 |
| 20260507154531 | 15 | 34 | 3.2 | 12.9 | 0.00 | 0.71 | 0.53 | 60 | 1007.5 |
| 20260507154014 | 15 | 319 | 4.8 | 17.7 | 0.00 | 0.71 | 0.53 | 59 | 1007.5 |
| 20260507153514 | 15 | 289 | 3.2 | 17.7 | 0.00 | 0.71 | 0.53 | 65 | 1007.7 |
| 20260507153030 | 15 | 194 | 4.8 | 16.1 | 0.00 | 0.71 | 0.53 | 67 | 1007.5 |
| 20260507152518 | 14 | 178 | 1.6 | 12.9 | 0.00 | 0.71 | 0.53 | 64 | 1007.6 |
| 20260507152015 | 15 | 256 | 3.2 | 12.9 | 0.00 | 0.71 | 0.53 | 64 | 1007.7 |
| 20260507151530 | 15 | 0 | 1.6 | 12.9 | 0.00 | 0.71 | 0.53 | 66 | 1007.5 |
| 20260507151015 | 15 | 265 | 3.2 | 12.9 | 0.00 | 0.71 | 0.53 | 64 | 1007.7 |
| 20260507150515 | 15 | 350 | 1.6 | 11.3 | 0.00 | 0.71 | 0.53 | 67 | 1007.5 |
| 20260507150036 | 14 | 0 | 1.6 | 6.4 | 0.00 | 0.71 | 0.53 | 70 | 1007.7 |
| 20260507145513 | 13 | 0 | 0.0 | 6.4 | 0.00 | 0.71 | 0.53 | 73 | 1007.9 |
| 20260507145011 | 13 | 309 | 0.0 | 14.5 | 0.00 | 0.71 | 0.53 | 71 | 1007.9 |
| 20260507144530 | 13 | 263 | 1.6 | 14.5 | 0.00 | 0.71 | 0.53 | 69 | 1007.8 |
| 20260507144015 | 13 | 197 | 3.2 | 9.7 | 0.00 | 0.71 | 0.53 | 71 | 1008.0 |
| 20260507143514 | 13 | 200 | 1.6 | 14.5 | 0.00 | 0.71 | 0.53 | 73 | 1007.9 |
| 20260507143034 | 13 | 318 | 1.6 | 14.5 | 0.00 | 0.71 | 0.53 | 72 | 1007.9 |
| 20260507142511 | 13 | 0 | 3.2 | 9.7 | 0.00 | 0.71 | 0.53 | 71 | 1007.8 |
| 20260507142014 | 13 | 216 | 1.6 | 9.7 | 0.00 | 0.71 | 0.53 | 74 | 1008.0 |
| 20260507141533 | 13 | 218 | 1.6 | 9.7 | 0.00 | 0.71 | 0.53 | 77 | 1008.0 |
| 20260507141011 | 13 | 69 | 3.2 | 12.9 | 0.00 | 0.71 | 0.53 | 73 | 1008.0 |
| 20260507140514 | 13 | 331 | 1.6 | 17.7 | 0.00 | 0.71 | 0.53 | 74 | 1008.2 |
| 20260507140033 | 13 | 328 | 4.8 | 17.7 | 0.03 | 0.71 | 0.53 | 74 | 1008.2 |
| 20260507135517 | 12 | 99 | 0.0 | 8.0 | 0.03 | 0.71 | 0.53 | 78 | 1008.1 |
| 20260507135017 | 12 | 0 | 1.6 | 9.7 | 0.03 | 0.71 | 0.53 | 79 | 1008.2 |
| 20260507134534 | 12 | 278 | 1.6 | 12.9 | 0.03 | 0.71 | 0.53 | 82 | 1008.1 |
| 20260507134015 | 12 | 283 | 3.2 | 12.9 | 0.03 | 0.71 | 0.53 | 80 | 1008.1 |
| 20260507133514 | 12 | 242 | 3.2 | 11.3 | 0.03 | 0.71 | 0.53 | 82 | 1008.1 |
| 20260507133032 | 12 | 306 | 3.2 | 9.7 | 0.03 | 0.71 | 0.53 | 83 | 1008.3 |
| 20260507132514 | 11 | 35 | 1.6 | 9.7 | 0.05 | 0.71 | 0.53 | 84 | 1008.4 |
| 20260507132015 | 11 | 0 | 3.2 | 9.7 | 0.05 | 0.71 | 0.53 | 84 | 1008.3 |
| 20260507131545 | 11 | 50 | 1.6 | 8.0 | 0.05 | 0.71 | 0.53 | 87 | 1008.2 |
| 20260507131016 | 11 | 0 | 1.6 | 8.0 | 0.05 | 0.71 | 0.53 | 88 | 1008.2 |
| 20260507130515 | 11 | 311 | 1.6 | 11.3 | 0.05 | 0.71 | 0.53 | 89 | 1008.2 |
| 20260507130029 | 10 | 265 | 3.2 | 11.3 | 0.03 | 0.69 | 0.51 | 90 | 1008.5 |
| 20260507125514 | 10 | 0 | 1.6 | 6.4 | 0.05 | 0.69 | 0.51 | 90 | 1008.3 |
| 20260507125011 | 10 | 257 | 0.0 | 4.8 | 0.05 | 0.69 | 0.51 | 91 | 1008.2 |
| 20260507124534 | 10 | 0 | 0.0 | 3.2 | 0.05 | 0.69 | 0.51 | 90 | 1008.4 |
| 20260507124016 | 10 | 0 | 0.0 | 4.8 | 0.05 | 0.69 | 0.51 | 90 | 1008.3 |
| 20260507123514 | 10 | 0 | 0.0 | 4.8 | 0.05 | 0.69 | 0.51 | 90 | 1008.3 |
| 20260507123030 | 10 | 278 | 0.0 | 4.8 | 0.05 | 0.66 | 0.48 | 91 | 1008.2 |
| 20260507122511 | 10 | 0 | 0.0 | 4.8 | 0.05 | 0.66 | 0.48 | 90 | 1008.1 |
| 20260507122014 | 10 | 0 | 0.0 | 4.8 | 0.05 | 0.66 | 0.48 | 90 | 1008.7 |
| 20260507121531 | 9 | 0 | 0.0 | 4.8 | 0.05 | 0.66 | 0.48 | 90 | 1008.5 |
| 20260507121014 | 9 | 0 | 0.0 | 4.8 | 0.08 | 0.66 | 0.48 | 90 | 1008.7 |
| 20260507120513 | 9 | 0 | 0.0 | 4.8 | 0.08 | 0.66 | 0.48 | 90 | 1008.7 |
| 20260507120039 | 9 | 229 | 0.0 | 3.2 | 0.05 | 0.64 | 0.46 | 90 | 1008.3 |
| 20260507115513 | 9 | 0 | 0.0 | 3.2 | 0.05 | 0.64 | 0.46 | 90 | 1008.2 |
| 20260507115015 | 9 | 0 | 0.0 | 3.2 | 0.05 | 0.64 | 0.46 | 90 | 1008.1 |
| 20260507114529 | 9 | 0 | 0.0 | 3.2 | 0.08 | 0.64 | 0.46 | 90 | 1008.1 |
| 20260507114014 | 9 | 0 | 0.0 | 3.2 | 0.08 | 0.64 | 0.46 | 90 | 1008.2 |
| 20260507113513 | 8 | 214 | 0.0 | 3.2 | 0.05 | 0.61 | 0.43 | 90 | 1008.1 |
| 20260507113032 | 8 | 0 | 0.0 | 0.0 | 0.05 | 0.61 | 0.43 | 90 | 1007.9 |
| 20260507112514 | 8 | 0 | 0.0 | 3.2 | 0.05 | 0.61 | 0.43 | 90 | 1008.2 |
| 20260507112014 | 8 | 0 | 0.0 | 3.2 | 0.05 | 0.61 | 0.43 | 90 | 1008.3 |
| 20260507111531 | 8 | 214 | 0.0 | 1.6 | 0.08 | 0.61 | 0.43 | 90 | 1008.3 |
| 20260507111014 | 8 | 0 | 0.0 | 3.2 | 0.05 | 0.58 | 0.41 | 90 | 1008.1 |
| 20260507110515 | 8 | 0 | 0.0 | 3.2 | 0.05 | 0.58 | 0.41 | 90 | 1007.9 |
| 20260507110029 | 8 | 335 | 0.0 | 3.2 | 0.05 | 0.58 | 0.41 | 89 | 1008.1 |
| 20260507105512 | 8 | 0 | 0.0 | 1.6 | 0.08 | 0.58 | 0.41 | 89 | 1008.3 |
| 20260507105015 | 8 | 0 | 0.0 | 3.2 | 0.08 | 0.58 | 0.41 | 90 | 1008.1 |
| 20260507104532 | 8 | 336 | 0.0 | 3.2 | 0.05 | 0.56 | 0.38 | 89 | 1007.6 |
| 20260507104015 | 8 | 0 | 0.0 | 3.2 | 0.08 | 0.56 | 0.38 | 89 | 1007.6 |
| 20260507103517 | 8 | 0 | 0.0 | 4.8 | 0.08 | 0.56 | 0.38 | 89 | 1007.5 |
| 20260507103032 | 8 | 0 | 0.0 | 4.8 | 0.08 | 0.56 | 0.38 | 89 | 1007.3 |
| 20260507102517 | 8 | 0 | 0.0 | 4.8 | 0.10 | 0.56 | 0.38 | 89 | 1007.8 |
| 20260507102013 | 8 | 340 | 0.0 | 3.2 | 0.08 | 0.53 | 0.36 | 89 | 1007.9 |
| 20260507101532 | 8 | 355 | 0.0 | 3.2 | 0.08 | 0.53 | 0.36 | 89 | 1008.0 |
| 20260507101014 | 8 | 0 | 0.0 | 3.2 | 0.08 | 0.53 | 0.36 | 89 | 1007.9 |
| 20260507100513 | 8 | 355 | 0.0 | 4.8 | 0.10 | 0.53 | 0.36 | 89 | 1008.0 |
| 20260507100035 | 8 | 355 | 0.0 | 4.8 | 0.08 | 0.51 | 0.33 | 89 | 1008.0 |
| 20260507095515 | 9 | 0 | 0.0 | 4.8 | 0.10 | 0.51 | 0.33 | 89 | 1007.8 |
| 20260507095013 | 9 | 0 | 0.0 | 8.0 | 0.10 | 0.51 | 0.33 | 89 | 1007.7 |
| 20260507094530 | 9 | 0 | 0.0 | 8.0 | 0.10 | 0.51 | 0.33 | 89 | 1007.6 |
| 20260507094013 | 9 | 0 | 0.0 | 4.8 | 0.10 | 0.48 | 0.30 | 89 | 1007.7 |
| 20260507093512 | 9 | 0 | 0.0 | 3.2 | 0.10 | 0.48 | 0.30 | 89 | 1007.5 |
| 20260507093032 | 9 | 0 | 0.0 | 3.2 | 0.13 | 0.48 | 0.30 | 89 | 1007.2 |
| 20260507092514 | 9 | 0 | 0.0 | 3.2 | 0.10 | 0.46 | 0.28 | 89 | 1007.5 |
| 20260507092012 | 9 | 0 | 0.0 | 3.2 | 0.13 | 0.46 | 0.28 | 89 | 1007.4 |
| 20260507091532 | 9 | 0 | 0.0 | 1.6 | 0.13 | 0.46 | 0.28 | 89 | 1007.3 |
| 20260507091014 | 9 | 355 | 0.0 | 1.6 | 0.13 | 0.43 | 0.25 | 89 | 1007.2 |
| 20260507090517 | 9 | 0 | 0.0 | 1.6 | 0.13 | 0.43 | 0.25 | 89 | 1007.5 |
| 20260507090033 | 9 | 0 | 0.0 | 3.2 | 0.15 | 0.43 | 0.25 | 89 | 1007.5 |
| 20260507085514 | 10 | 0 | 0.0 | 3.2 | 0.15 | 0.41 | 0.23 | 89 | 1007.5 |
| 20260507085014 | 10 | 355 | 0.0 | 4.8 | 0.15 | 0.41 | 0.23 | 89 | 1007.1 |
| 20260507084529 | 10 | 0 | 0.0 | 4.8 | 0.18 | 0.41 | 0.23 | 89 | 1006.8 |
| 20260507084014 | 10 | 0 | 0.0 | 4.8 | 0.15 | 0.38 | 0.20 | 88 | 1006.9 |
| 20260507083514 | 10 | 0 | 1.6 | 4.8 | 0.18 | 0.38 | 0.20 | 88 | 1007.2 |
| 20260507083030 | 10 | 0 | 0.0 | 3.2 | 0.18 | 0.36 | 0.18 | 88 | 1007.0 |
| 20260507082514 | 10 | 0 | 0.0 | 6.4 | 0.18 | 0.36 | 0.18 | 88 | 1006.9 |
| 20260507082016 | 10 | 0 | 0.0 | 6.4 | 0.15 | 0.33 | 0.15 | 88 | 1006.8 |
| 20260507081542 | 10 | 184 | 1.6 | 9.7 | 0.15 | 0.33 | 0.15 | 88 | 1007.1 |
| 20260507081015 | 10 | 224 | 0.0 | 9.7 | 0.13 | 0.30 | 0.13 | 87 | 1006.3 |
| 20260507080516 | 10 | 338 | 1.6 | 9.7 | 0.10 | 0.28 | 0.10 | 87 | 1007.1 |
| 20260507080033 | 10 | 0 | 1.6 | 9.7 | 0.10 | 0.28 | 0.10 | 86 | 1007.7 |
| 20260507075517 | 11 | 188 | 0.0 | 9.7 | 0.08 | 0.25 | 0.08 | 86 | 1007.3 |
| 20260507075014 | 11 | 348 | 0.0 | 12.9 | 0.08 | 0.25 | 0.08 | 86 | 1007.1 |
| 20260507074549 | 11 | 231 | 3.2 | 12.9 | 0.05 | 0.23 | 0.05 | 86 | 1007.1 |
| 20260507074014 | 11 | 294 | 3.2 | 9.7 | 0.03 | 0.20 | 0.03 | 86 | 1007.2 |
| 20260507073516 | 12 | 313 | 3.2 | 9.7 | 0.03 | 0.20 | 0.03 | 86 | 1006.7 |
| 20260507073034 | 12 | 0 | 0.0 | 4.8 | 0.00 | 0.18 | 0.00 | 86 | 1006.4 |
| 20260507072516 | 12 | 0 | 0.0 | 4.8 | 0.00 | 0.18 | 0.00 | 86 | 1006.0 |
| 20260507072013 | 12 | 0 | 0.0 | 9.7 | 0.00 | 0.18 | 0.00 | 86 | 1005.9 |
| 20260507071533 | 12 | 0 | 0.0 | 11.3 | 0.00 | 0.18 | 0.00 | 87 | 1005.7 |
| 20260507071013 | 12 | 274 | 1.6 | 11.3 | 0.00 | 0.18 | 0.00 | 87 | 1005.7 |
| 20260507070513 | 12 | 330 | 1.6 | 6.4 | 0.00 | 0.18 | 0.00 | 88 | 1005.9 |
| 20260507070030 | 12 | 332 | 1.6 | 6.4 | 0.00 | 0.18 | 0.00 | 88 | 1005.7 |
| 20260507065513 | 12 | 15 | 0.0 | 8.0 | 0.00 | 0.18 | 0.00 | 89 | 1005.7 |
| 20260507065013 | 12 | 342 | 0.0 | 8.0 | 0.00 | 0.18 | 0.00 | 89 | 1005.9 |
| 20260507064532 | 12 | 326 | 1.6 | 8.0 | 0.00 | 0.18 | 0.00 | 89 | 1005.9 |
| 20260507064014 | 13 | 0 | 0.0 | 6.4 | 0.00 | 0.18 | 0.00 | 90 | 1005.9 |
| 20260507063514 | 13 | 0 | 0.0 | 6.4 | 0.00 | 0.18 | 0.00 | 90 | 1005.8 |
| 20260507063029 | 13 | 257 | 0.0 | 6.4 | 0.00 | 0.18 | 0.00 | 90 | 1006.0 |
| 20260507062514 | 13 | 290 | 0.0 | 6.4 | 0.00 | 0.18 | 0.00 | 90 | 1005.9 |
| 20260507062012 | 13 | 0 | 0.0 | 1.6 | 0.00 | 0.18 | 0.00 | 90 | 1006.0 |
| 20260507061534 | 13 | 0 | 0.0 | 1.6 | 0.00 | 0.18 | 0.00 | 90 | 1006.0 |
| 20260507061014 | 13 | 0 | 0.0 | 0.0 | 0.00 | 0.18 | 0.00 | 90 | 1006.0 |
| 20260507060513 | 13 | 0 | 0.0 | 3.2 | 0.00 | 0.18 | 0.00 | 90 | 1005.9 |
| 20260507060032 | 13 | 0 | 0.0 | 3.2 | 0.00 | 0.18 | 0.00 | 90 | 1005.9 |
| 20260507055514 | 13 | 272 | 0.0 | 3.2 | 0.00 | 0.18 | 0.00 | 90 | 1006.0 |
| 20260507055014 | 13 | 0 | 0.0 | 0.0 | 0.00 | 0.18 | 0.00 | 90 | 1006.2 |
| 20260507054531 | 13 | 0 | 0.0 | 0.0 | 0.00 | 0.18 | 0.00 | 90 | 1006.1 |
| 20260507054013 | 13 | 0 | 0.0 | 0.0 | 0.00 | 0.18 | 0.00 | 90 | 1006.3 |
| 20260507053513 | 13 | 0 | 0.0 | 3.2 | 0.00 | 0.18 | 0.00 | 91 | 1006.4 |
| 20260507053032 | 13 | 0 | 0.0 | 3.2 | 0.00 | 0.18 | 0.00 | 91 | 1006.5 |
| 20260507052513 | 13 | 0 | 0.0 | 1.6 | 0.00 | 0.18 | 0.00 | 91 | 1006.4 |
| 20260507052011 | 13 | 0 | 0.0 | 1.6 | 0.00 | 0.18 | 0.00 | 91 | 1006.5 |
| 20260507051531 | 13 | 0 | 0.0 | 1.6 | 0.00 | 0.18 | 0.00 | 91 | 1006.4 |
| 20260507051022 | 13 | 0 | 0.0 | 1.6 | 0.00 | 0.18 | 0.00 | 91 | 1006.3 |
| 20260507050514 | 13 | 0 | 0.0 | 1.6 | 0.00 | 0.18 | 0.00 | 91 | 1006.5 |
| 20260507050032 | 13 | 0 | 0.0 | 6.4 | 0.00 | 0.18 | 0.00 | 91 | 1006.5 |
| 20260507045511 | 13 | 0 | 0.0 | 6.4 | 0.00 | 0.18 | 0.00 | 91 | 1006.5 |
| 20260507045014 | 13 | 0 | 0.0 | 1.6 | 0.00 | 0.18 | 0.00 | 91 | 1006.5 |
| 20260507044535 | 13 | 0 | 0.0 | 1.6 | 0.00 | 0.18 | 0.00 | 90 | 1006.6 |
| 20260507044011 | 13 | 0 | 0.0 | 0.0 | 0.00 | 0.18 | 0.00 | 90 | 1006.6 |
| 20260507043513 | 13 | 0 | 0.0 | 0.0 | 0.00 | 0.18 | 0.00 | 90 | 1006.7 |
| 20260507043032 | 13 | 0 | 0.0 | 1.6 | 0.00 | 0.18 | 0.00 | 90 | 1006.7 |
| 20260507042515 | 13 | 0 | 0.0 | 1.6 | 0.00 | 0.18 | 0.00 | 90 | 1006.6 |
| 20260507042010 | 13 | 0 | 0.0 | 1.6 | 0.00 | 0.18 | 0.00 | 90 | 1006.4 |
| 20260507041529 | 13 | 0 | 0.0 | 0.0 | 0.00 | 0.18 | 0.00 | 90 | 1006.4 |
| 20260507041013 | 13 | 0 | 0.0 | 0.0 | 0.00 | 0.18 | 0.00 | 90 | 1006.5 |
| 20260507040514 | 13 | 0 | 0.0 | 0.0 | 0.00 | 0.18 | 0.00 | 90 | 1006.5 |
| 20260507040035 | 13 | 0 | 0.0 | 0.0 | 0.00 | 0.18 | 0.00 | 90 | 1006.5 |
| 20260507035513 | 13 | 0 | 0.0 | 0.0 | 0.00 | 0.18 | 0.18 | 90 | 1006.5 |
| 20260507035013 | 13 | 0 | 0.0 | 3.2 | 0.00 | 0.18 | 0.18 | 90 | 1006.5 |
| 20260507034529 | 13 | 0 | 0.0 | 3.2 | 0.00 | 0.18 | 0.18 | 90 | 1006.3 |
| 20260507034014 | 13 | 127 | 0.0 | 6.4 | 0.00 | 0.18 | 0.18 | 90 | 1006.6 |
| 20260507033514 | 13 | 0 | 0.0 | 6.4 | 0.00 | 0.18 | 0.18 | 90 | 1006.5 |
| 20260507033029 | 13 | 163 | 0.0 | 3.2 | 0.00 | 0.18 | 0.18 | 90 | 1006.9 |
| 20260507032513 | 13 | 0 | 0.0 | 3.2 | 0.00 | 0.18 | 0.18 | 90 | 1006.7 |
| 20260507032015 | 13 | 0 | 0.0 | 3.2 | 0.00 | 0.18 | 0.18 | 90 | 1006.8 |
| 20260507031530 | 13 | 155 | 0.0 | 6.4 | 0.00 | 0.18 | 0.18 | 90 | 1006.4 |
| 20260507031015 | 13 | 0 | 0.0 | 6.4 | 0.00 | 0.18 | 0.18 | 90 | 1006.4 |
| 20260507030511 | 13 | 0 | 1.6 | 6.4 | 0.00 | 0.18 | 0.18 | 90 | 1006.6 |
| 20260507030030 | 13 | 145 | 0.0 | 6.4 | 0.00 | 0.18 | 0.18 | 90 | 1006.5 |
| 20260507025513 | 13 | 0 | 0.0 | 11.3 | 0.00 | 0.18 | 0.18 | 90 | 1006.5 |
| 20260507025013 | 13 | 128 | 0.0 | 11.3 | 0.00 | 0.18 | 0.18 | 90 | 1006.6 |
| 20260507024533 | 13 | 184 | 1.6 | 12.9 | 0.00 | 0.18 | 0.18 | 90 | 1006.4 |
| 20260507024016 | 13 | 154 | 4.8 | 12.9 | 0.00 | 0.18 | 0.18 | 90 | 1006.5 |
| 20260507023514 | 13 | 140 | 0.0 | 6.4 | 0.00 | 0.18 | 0.18 | 90 | 1006.6 |
| 20260507023030 | 13 | 143 | 0.0 | 8.0 | 0.00 | 0.18 | 0.18 | 90 | 1006.8 |
| 20260507022513 | 13 | 239 | 1.6 | 12.9 | 0.00 | 0.18 | 0.18 | 90 | 1006.5 |
| 20260507022013 | 13 | 174 | 3.2 | 12.9 | 0.00 | 0.18 | 0.18 | 90 | 1006.5 |
| 20260507021535 | 13 | 209 | 1.6 | 9.7 | 0.00 | 0.18 | 0.18 | 90 | 1006.4 |
| 20260507021014 | 13 | 144 | 1.6 | 8.0 | 0.00 | 0.18 | 0.18 | 90 | 1006.6 |
| 20260507020514 | 13 | 142 | 0.0 | 8.0 | 0.00 | 0.18 | 0.18 | 90 | 1006.7 |
| 20260507020031 | 13 | 0 | 1.6 | 8.0 | 0.00 | 0.18 | 0.18 | 90 | 1006.6 |
| 20260507015512 | 13 | 133 | 0.0 | 9.7 | 0.00 | 0.18 | 0.18 | 90 | 1006.7 |
| 20260507015014 | 13 | 154 | 0.0 | 9.7 | 0.00 | 0.18 | 0.18 | 90 | 1006.7 |
| 20260507014544 | 13 | 139 | 1.6 | 9.7 | 0.00 | 0.18 | 0.18 | 90 | 1006.7 |
| 20260507014014 | 13 | 161 | 1.6 | 6.4 | 0.00 | 0.18 | 0.18 | 90 | 1006.9 |
| 20260507013513 | 13 | 151 | 0.0 | 9.7 | 0.00 | 0.18 | 0.18 | 90 | 1006.9 |
| 20260507013030 | 13 | 140 | 3.2 | 9.7 | 0.00 | 0.18 | 0.18 | 90 | 1006.9 |
| 20260507012513 | 13 | 0 | 0.0 | 4.8 | 0.00 | 0.18 | 0.18 | 90 | 1007.0 |
| 20260507012017 | 13 | 0 | 0.0 | 14.5 | 0.00 | 0.18 | 0.18 | 90 | 1007.0 |
| 20260507011532 | 13 | 0 | 0.0 | 14.5 | 0.00 | 0.18 | 0.18 | 90 | 1007.0 |
| 20260507011013 | 13 | 151 | 1.6 | 12.9 | 0.00 | 0.18 | 0.18 | 90 | 1006.9 |
| 20260507010513 | 13 | 252 | 0.0 | 12.9 | 0.00 | 0.18 | 0.18 | 90 | 1007.1 |
| 20260507010034 | 13 | 139 | 3.2 | 12.9 | 0.00 | 0.18 | 0.18 | 90 | 1007.1 |
| 20260507005513 | 13 | 194 | 1.6 | 8.0 | 0.00 | 0.18 | 0.18 | 90 | 1007.2 |
| 20260507005015 | 13 | 205 | 1.6 | 12.9 | 0.00 | 0.18 | 0.18 | 90 | 1007.0 |
| 20260507004530 | 13 | 0 | 3.2 | 12.9 | 0.00 | 0.18 | 0.18 | 90 | 1007.0 |
| 20260507004018 | 13 | 79 | 3.2 | 12.9 | 0.00 | 0.18 | 0.18 | 90 | 1007.0 |
| 20260507003512 | 13 | 71 | 1.6 | 12.9 | 0.03 | 0.18 | 0.18 | 90 | 1007.1 |
| 20260507003030 | 13 | 182 | 1.6 | 14.5 | 0.03 | 0.18 | 0.18 | 90 | 1006.9 |
| 20260507002514 | 13 | 164 | 4.8 | 14.5 | 0.03 | 0.18 | 0.18 | 90 | 1006.8 |
| 20260507002014 | 13 | 206 | 3.2 | 11.3 | 0.03 | 0.18 | 0.18 | 90 | 1006.9 |
| 20260507001532 | 13 | 117 | 3.2 | 11.3 | 0.03 | 0.18 | 0.18 | 90 | 1006.9 |
| 20260507001017 | 13 | 154 | 1.6 | 16.1 | 0.03 | 0.18 | 0.18 | 90 | 1006.9 |
| 20260507000514 | 12 | 178 | 0.0 | 16.1 | 0.03 | 0.18 | 0.18 | 90 | 1006.9 |
| 20260507000037 | 12 | 169 | 3.2 | 14.5 | 0.03 | 0.18 | 0.18 | 90 | 1007.0 |
| 20260506235514 | 12 | 202 | 1.6 | 14.5 | 0.03 | 0.18 | 0.18 | 90 | 1006.9 |
| 20260506235015 | 12 | 134 | 1.6 | 12.9 | 0.03 | 0.18 | 0.18 | 90 | 1006.9 |
| 20260506234530 | 12 | 151 | 3.2 | 12.9 | 0.03 | 0.18 | 0.18 | 89 | 1006.7 |
| 20260506234012 | 12 | 162 | 1.6 | 16.1 | 0.03 | 0.18 | 0.18 | 89 | 1006.9 |
| 20260506233515 | 12 | 105 | 3.2 | 16.1 | 0.00 | 0.15 | 0.15 | 89 | 1006.7 |
| 20260506233034 | 12 | 246 | 0.0 | 14.5 | 0.00 | 0.15 | 0.15 | 89 | 1007.0 |
| 20260506232514 | 12 | 0 | 3.2 | 14.5 | 0.00 | 0.15 | 0.15 | 89 | 1006.9 |
| 20260506232014 | 12 | 147 | 3.2 | 14.5 | 0.00 | 0.15 | 0.15 | 89 | 1006.8 |
| 20260506231531 | 12 | 159 | 1.6 | 14.5 | 0.00 | 0.15 | 0.15 | 89 | 1007.0 |
| 20260506231018 | 12 | 115 | 4.8 | 14.5 | 0.03 | 0.15 | 0.15 | 89 | 1007.0 |
| 20260506230515 | 12 | 146 | 3.2 | 17.7 | 0.03 | 0.15 | 0.15 | 89 | 1007.0 |
| 20260506230032 | 12 | 196 | 4.8 | 17.7 | 0.05 | 0.15 | 0.15 | 89 | 1007.0 |
| 20260506225517 | 13 | 190 | 4.8 | 17.7 | 0.05 | 0.15 | 0.15 | 89 | 1006.9 |
| 20260506225013 | 13 | 210 | 1.6 | 14.5 | 0.05 | 0.15 | 0.15 | 89 | 1006.9 |
| 20260506224531 | 13 | 186 | 6.4 | 20.9 | 0.08 | 0.15 | 0.15 | 89 | 1006.8 |
| 20260506224016 | 13 | 143 | 3.2 | 20.9 | 0.08 | 0.15 | 0.15 | 89 | 1006.8 |
| 20260506223515 | 13 | 139 | 4.8 | 12.9 | 0.08 | 0.15 | 0.15 | 89 | 1006.7 |
| 20260506223032 | 13 | 147 | 3.2 | 14.5 | 0.10 | 0.15 | 0.15 | 88 | 1007.0 |
| 20260506222516 | 13 | 161 | 3.2 | 16.1 | 0.10 | 0.15 | 0.15 | 88 | 1006.8 |
| 20260506222018 | 13 | 142 | 3.2 | 16.1 | 0.10 | 0.15 | 0.15 | 88 | 1006.8 |
| 20260506221534 | 13 | 184 | 4.8 | 12.9 | 0.08 | 0.13 | 0.13 | 88 | 1007.1 |
| 20260506221017 | 13 | 17 | 0.0 | 16.1 | 0.08 | 0.13 | 0.13 | 88 | 1007.4 |
| 20260506220514 | 13 | 126 | 1.6 | 16.1 | 0.08 | 0.13 | 0.13 | 88 | 1007.5 |
| 20260506220030 | 13 | 171 | 6.4 | 19.3 | 0.05 | 0.10 | 0.10 | 88 | 1007.4 |
| 20260506215520 | 13 | 150 | 6.4 | 19.3 | 0.05 | 0.10 | 0.10 | 87 | 1007.5 |
| 20260506215018 | 13 | 179 | 4.8 | 19.3 | 0.05 | 0.10 | 0.10 | 87 | 1007.5 |
| 20260506214531 | 13 | 186 | 1.6 | 16.1 | 0.03 | 0.08 | 0.08 | 87 | 1007.5 |
| 20260506214014 | 13 | 170 | 4.8 | 16.1 | 0.03 | 0.08 | 0.08 | 86 | 1007.5 |
| 20260506213515 | 13 | 200 | 3.2 | 14.5 | 0.03 | 0.08 | 0.08 | 86 | 1007.6 |
| 20260506213031 | 13 | 196 | 3.2 | 14.5 | 0.00 | 0.05 | 0.05 | 86 | 1007.6 |
| 20260506212514 | 13 | 95 | 3.2 | 14.5 | 0.00 | 0.05 | 0.05 | 86 | 1007.5 |
| 20260506212014 | 14 | 172 | 3.2 | 14.5 | 0.00 | 0.05 | 0.05 | 86 | 1007.5 |
| 20260506211534 | 14 | 240 | 3.2 | 17.7 | 0.00 | 0.05 | 0.05 | 86 | 1007.7 |
| 20260506211015 | 14 | 194 | 4.8 | 17.7 | 0.00 | 0.05 | 0.05 | 86 | 1007.7 |
| 20260506210517 | 14 | 169 | 4.8 | 17.7 | 0.00 | 0.05 | 0.05 | 86 | 1007.7 |
| 20260506210032 | 14 | 214 | 3.2 | 16.1 | 0.00 | 0.05 | 0.05 | 86 | 1007.7 |
| 20260506205515 | 14 | 121 | 3.2 | 14.5 | 0.00 | 0.05 | 0.05 | 86 | 1007.8 |
| 20260506205014 | 14 | 155 | 4.8 | 17.7 | 0.00 | 0.05 | 0.05 | 86 | 1007.9 |
| 20260506204532 | 14 | 205 | 4.8 | 17.7 | 0.03 | 0.05 | 0.05 | 86 | 1007.9 |
| 20260506204014 | 14 | 183 | 4.8 | 24.1 | 0.03 | 0.05 | 0.05 | 86 | 1007.9 |
| 20260506203518 | 14 | 158 | 6.4 | 24.1 | 0.03 | 0.05 | 0.05 | 86 | 1008.1 |
| 20260506203032 | 14 | 153 | 3.2 | 16.1 | 0.05 | 0.05 | 0.05 | 86 | 1008.0 |
| 20260506202514 | 14 | 165 | 4.8 | 14.5 | 0.05 | 0.05 | 0.05 | 86 | 1008.0 |
| 20260506202012 | 15 | 71 | 3.2 | 16.1 | 0.05 | 0.05 | 0.05 | 86 | 1008.0 |
| 20260506201531 | 15 | 163 | 4.8 | 16.1 | 0.05 | 0.05 | 0.05 | 86 | 1008.0 |
| 20260506201013 | 15 | 202 | 4.8 | 14.5 | 0.05 | 0.05 | 0.05 | 86 | 1008.3 |
| 20260506200519 | 15 | 92 | 4.8 | 14.5 | 0.05 | 0.05 | 0.05 | 86 | 1008.1 |
| 20260506200029 | 15 | 117 | 1.6 | 16.1 | 0.05 | 0.05 | 0.05 | 86 | 1008.2 |
| 20260506195513 | 15 | 167 | 6.4 | 22.5 | 0.05 | 0.05 | 0.05 | 85 | 1008.1 |
| 20260506195011 | 15 | 161 | 8.0 | 22.5 | 0.05 | 0.05 | 0.05 | 85 | 1008.1 |
| 20260506194530 | 15 | 207 | 4.8 | 16.1 | 0.03 | 0.03 | 0.03 | 84 | 1008.3 |
| 20260506194014 | 16 | 321 | 3.2 | 16.1 | 0.03 | 0.03 | 0.03 | 83 | 1008.2 |
| 20260506193511 | 16 | 183 | 4.8 | 11.3 | 0.03 | 0.03 | 0.03 | 82 | 1008.5 |
| 20260506193033 | 16 | 155 | 1.6 | 14.5 | 0.00 | 0.00 | 0.00 | 81 | 1008.3 |
| 20260506192516 | 16 | 0 | 1.6 | 16.1 | 0.00 | 0.00 | 0.00 | 80 | 1008.4 |
| 20260506192013 | 17 | 174 | 3.2 | 33.8 | 0.00 | 0.00 | 0.00 | 79 | 1008.5 |
| 20260506191532 | 17 | 84 | 3.2 | 33.8 | 0.00 | 0.00 | 0.00 | 78 | 1008.3 |
| 20260506191014 | 17 | 128 | 4.8 | 20.9 | 0.00 | 0.00 | 0.00 | 76 | 1008.4 |
| 20260506190511 | 17 | 229 | 8.0 | 20.9 | 0.00 | 0.00 | 0.00 | 76 | 1008.3 |
| 20260506190030 | 17 | 137 | 3.2 | 20.9 | 0.00 | 0.00 | 0.00 | 75 | 1008.5 |
| 20260506185513 | 17 | 184 | 4.8 | 20.9 | 0.00 | 0.00 | 0.00 | 75 | 1008.4 |
| 20260506185012 | 17 | 155 | 4.8 | 14.5 | 0.00 | 0.00 | 0.00 | 75 | 1008.6 |
| 20260506184531 | 17 | 170 | 4.8 | 16.1 | 0.00 | 0.00 | 0.00 | 75 | 1008.3 |
| 20260506184010 | 17 | 248 | 6.4 | 16.1 | 0.00 | 0.00 | 0.00 | 74 | 1008.3 |
| 20260506183513 | 17 | 151 | 3.2 | 16.1 | 0.00 | 0.00 | 0.00 | 74 | 1008.3 |
| 20260506183032 | 18 | 132 | 3.2 | 16.1 | 0.00 | 0.00 | 0.00 | 74 | 1008.6 |
| 20260506182512 | 18 | 134 | 8.0 | 17.7 | 0.00 | 0.00 | 0.00 | 73 | 1008.6 |
| 20260506182014 | 18 | 176 | 6.4 | 17.7 | 0.00 | 0.00 | 0.00 | 73 | 1008.8 |
| 20260506181532 | 18 | 156 | 6.4 | 17.7 | 0.00 | 0.00 | 0.00 | 72 | 1008.6 |
| 20260506181015 | 18 | 190 | 4.8 | 16.1 | 0.00 | 0.00 | 0.00 | 72 | 1008.6 |
| 20260506180515 | 18 | 208 | 4.8 | 25.7 | 0.00 | 0.00 | 0.00 | 72 | 1008.7 |
| 20260506180036 | 19 | 168 | 4.8 | 25.7 | 0.00 | 0.00 | 0.00 | 71 | 1008.9 |
| 20260506175510 | 19 | 145 | 6.4 | 25.7 | 0.00 | 0.00 | 0.00 | 71 | 1009.1 |
| 20260506175011 | 19 | 67 | 8.0 | 25.7 | 0.00 | 0.00 | 0.00 | 71 | 1008.7 |
| 20260506174529 | 19 | 175 | 6.4 | 27.4 | 0.00 | 0.00 | 0.00 | 71 | 1009.1 |
| 20260506174013 | 19 | 150 | 9.7 | 27.4 | 0.00 | 0.00 | 0.00 | 70 | 1009.1 |
| 20260506173512 | 20 | 149 | 4.8 | 25.7 | 0.00 | 0.00 | 0.00 | 70 | 1009.4 |
| 20260506173029 | 20 | 147 | 6.4 | 24.1 | 0.00 | 0.00 | 0.00 | 70 | 1009.3 |
| 20260506172511 | 20 | 165 | 8.0 | 29.0 | 0.00 | 0.00 | 0.00 | 71 | 1009.4 |
| 20260506172013 | 19 | 134 | 9.7 | 29.0 | 0.00 | 0.00 | 0.00 | 71 | 1009.2 |
| 20260506171533 | 19 | 140 | 3.2 | 29.0 | 0.00 | 0.00 | 0.00 | 71 | 1009.2 |
| 20260506171010 | 19 | 189 | 9.7 | 29.0 | 0.00 | 0.00 | 0.00 | 70 | 1009.4 |
| 20260506170510 | 20 | 213 | 6.4 | 22.5 | 0.00 | 0.00 | 0.00 | 69 | 1009.4 |
| 20260506170031 | 20 | 0 | 8.0 | 27.4 | 0.00 | 0.00 | 0.00 | 68 | 1009.2 |
| 20260506165515 | 20 | 189 | 9.7 | 27.4 | 0.00 | 0.00 | 0.00 | 69 | 1009.4 |
| 20260506165010 | 20 | 177 | 8.0 | 24.1 | 0.00 | 0.00 | 0.00 | 69 | 1009.5 |
| 20260506164530 | 20 | 173 | 6.4 | 24.1 | 0.00 | 0.00 | 0.00 | 70 | 1009.6 |
| 20260506164011 | 19 | 44 | 6.4 | 22.5 | 0.00 | 0.00 | 0.00 | 71 | 1009.8 |
| 20260506163513 | 19 | 153 | 4.8 | 29.0 | 0.00 | 0.00 | 0.00 | 72 | 1009.9 |
| 20260506163052 | 19 | 191 | 6.4 | 30.6 | 0.00 | 0.00 | 0.00 | 71 | 1009.7 |
| 20260506162519 | 19 | 206 | 9.7 | 30.6 | 0.00 | 0.00 | 0.00 | 71 | 1009.8 |
| 20260506162013 | 19 | 184 | 6.4 | 24.1 | 0.00 | 0.00 | 0.00 | 71 | 1009.9 |